FENGYUN 1C DEB

Satellite information

Favourite Embed

Satellite Type and Status

DEBRISIN ORBIT

Key statistics

Satellite FENGYUN 1C DEB at a glance.

Uptime

9615

Days in orbit

Revolutions

≈ 14.3

Per day

Orbit

SSO

Sun Synchronous Orbit

Inclination

99.1

Latest

Satellite identification and parameters

Extended collection of information and parameters for FENGYUN 1C DEB.

Object identification

Identified? True

Debris? True

Object name: FENGYUN 1C DEB

International designator: 1999-025CES

Object number (NORAD): 31743

Object ID (CCSDS): 31743

Country: PEOPLES REPUBLIC OF CHINA (PRC)

Current information (Y/N): Y

RCS size: SMALL

Orbital parameters

Period: 100.709 minutes

Inclination: 99.1312 deg

SMA: 7170.35 km

Apoapsis: 820.379 km

Periapsis: 764.051 km

RAAN: 169.1632 deg

Eccentricy: 0.00392785

Argument of periapsis: 148.4107 deg

Mean anomaly: 3.2662 deg

Mean motion: 14.2985576 rev/day

Mean motion (dot): 0.00009232 rev/day2

B* drag term: 0.0035727726 1/REarth

Two-line elements (TLE)

Creation date: Sept. 3, 2025, 10:15 a.m.

Reference frame: TEME

Reference center: EARTH

Epoch: Sept. 3, 2025, 6:56 a.m. UTC

TLE line 0: 0 FENGYUN 1C DEB

TLE line 1: 1 31743U 99025CES 25246.28911437 .00009232 00000-0 35728-2 0 9990

TLE line 2: 2 31743 99.1312 169.1632 0039279 148.4107 3.2662 14.29855760942043

Live tracking on map

Real-time ground track for satellite FENGYUN 1C DEB.

In-orbit conjunctions

A list of the most updated potential collisions computed for object FENGYUN 1C DEB.

Target Orbit TCA Probability of collision Miss distance Type
SL-12 R/B(AUX MOTOR) LEO 2025-06-19 05:07:28 0.0003598034 113.0 (m) ROCKET BODY
PEGASUS R/B(2) LEO 2025-01-13 11:37:45 0.0005636873 129.0 (m) ROCKET BODY
CZ-6A DEB LEO 2024-12-21 13:32:58 0.0002548624 842.0 (m) DEBRIS

Associated space launch

Chinese polar orbiting meteorological satellite

FENGYUN 1C DEB was lifted into orbit during the mission ‘Long March 4B | Feng Yun 1C’, on board a Long March 4B space rocket.

The launch took place on May 10, 1999, 1:33 a.m. from Launch Complex 7.

For more information about the launch, click the button.

Launch to space Long March 4B | Feng Yun 1C
Long March 4B | Feng Yun 1C

Agency: N/A

Status: Launch Successful

Launch date: May 10, 1999, 1:33 a.m. UTC

Rocket: Long March 4B

Launch pad: Launch Complex 7

Location: Taiyuan Satellite Launch Center, People's Republic of China

...

Latest news about this satellite

There are no fresh news available about this satellite. Check back as we update our databases every day.


Newsletter sign-up

Weekly statistics, charts and insights to help you stay on top of the space industry.